Torna al catalogo

FENGYUN 1C DEB

AttivoSSO
NORAD 31804·DEBRIS·🇨🇳 China

Lanciato May 10, 1999 da Taiyuan Satellite Launch Center

Loading…

Prossimi Passaggi (prossime 24 ore)

TLE

In scadenzaSource: Space-Track

Epoca: Sep 5, 2026, 05:19 UTC

1 31804U 99025CGS 26248.22192008  .00001678  00000-0  82969-3 0  9996
2 31804  98.3032  42.3981 0137730  96.6097 265.0776 14.13709747674258

Traccia FENGYUN 1C DEB in tempo reale con AllMySat

Download on the App Store